Location: *
(51.1248°S, 108.4023°W)
Time: 04:30:09
(UTC+00:00)

CZ-4 R/B - Pass Details

Date: 15 June 2021
Orbit: 579 x 589 km, 97.7° (Epoch: 31 July)

Event Time Altitude Azimuth Distance (km) Brightness Sun altitude
Rises 13:29:11 0° 12° (NNE) 2,803 8.4 -15.7°
Reaches altitude 10° 13:31:19 10° 11° (N) 1,912 7.5 -15.4°
Maximum altitude 13:35:28 79° 285° (WNW) 610 4.4 -14.8°
Drops below altitude 10° 13:39:42 10° 196° (SSW) 1,942 6.8 -14.1°
Enters shadow 13:40:12 - 195° (SSW) 2,146 7.0 -14.1°
